Tracking 18980 objects as of 22-Feb-2018
HD Live streaming from Space Station
objects crossing your sky now

FENGYUN 1C DEB

Track FENGYUN 1C DEB now!
10-day predictions


NORAD ID: 32089
Int'l Code: 1999-025CQF
Perigee: 784.7 km
Apogee: 958.3 km
Inclination: 98.9 °
Period: 102.2 minutes
Semi major axis: 7242 km
RCS: 0.0109 m2 (small)
Launch date: May 10, 1999
Source: People's Republic of China (PRC)
Launch site: Taiyaun Space Center, China (TSC)

Note: This is SATELLITE DEBRIS
aabbcc
Your satellite tracking list
Your tracking list is empty




NASA's NSSDC Master Catalog

Two Line Element Set (TLE):
1 32089U 99025CQF 18049.89513453  .00000351  00000-0  21584-3 0  9999
2 32089  98.8813  95.9005 0119833 284.6984  74.0929 14.08533475543941
Source of the keplerian elements: AFSPC